Regional Weather Roundup
Issued by NWS Albany, NY

Home | Current Version | Previous Version | Text Only | Print | Product List | Glossary On
Versions: 1 2 3 4 5 6 7 8 9 10 11 12 13 14 15 16 17 18 19 20 21 22 23 24 25 26 27 28 29 30 31 32 33 34 35 36 37 38 39 40 41 42 43 44 45 46 47 48 49 50
000
ASUS41 KALY 171410
RWRALY

NEW YORK STATE HOURLY WEATHER ROUNDUP
NATIONAL WEATHER SERVICE ALBANY NY
900 AM EST WED JAN 17 2018

NOTE: "FAIR" INDICATES FEW OR NO CLOUDS BELOW 12,000 FEET WITH NO
SIGNIFICANT WEATHER AND/OR NO OBSTRUCTIONS TO VISIBILITY.

NYZ032-033-038>043-046>054-057>066-NYZ062>081-082-084-171500-
EAST


CITY           SKY/WX    TMP DP  RH WIND       PRES   REMARKS
ALBANY         LGT SNOW  26  23  88 N6        30.31S VSB 3/4 WCI  19
GLENS FALLS    LGT SNOW  25  23  92 N7        30.30R FOG     WCI  17
POUGHKEEPSIE   LGT SNOW  29  26  89 CALM      30.28S VSB 1
NEWBURGH       LGT SNOW  28  28 100 CALM      30.27S VSB 3/4
MONTGOMERY     SNOW      29  28  96 CALM      30.26S VSB 1/2
WHITE PLAINS   LGT SNOW  32  31  96 NW8       30.23S FOG     WCI  25
ISLIP          LGT RAIN  38  37  97 NE6       30.23R WCI  33
NEW YORK CITY  LGT SNOW  34  32  92 N7        30.26R FOG     WCI  28
CENTRAL PARK   CLOUDY    33  32  96 CALM      30.28S FOG
$$

NYZ005>009-017-018-044>046-055-056-171500-
CENTRAL


CITY           SKY/WX    TMP DP  RH WIND       PRES   REMARKS
FULTON         LGT SNOW  16  10  77 SW10      30.39R WCI   4
SYRACUSE       LGT SNOW  15  12  88 W12       30.39S FOG     WCI   2
ROME           LGT SNOW  16  12  84 W14       30.38R FOG     WCI   2
ELMIRA         FAIR      11   8  88 SW5       30.37S WCI   3
BINGHAMTON     SNOW      14  11  87 NW9       30.27S VSB 1/2 WCI   2
MONTICELLO     LGT SNOW  26  25  96 W7        30.23S FOG     WCI  18
$$

NYZ026>034-041>043-087-171500-
NORTH


CITY           SKY/WX    TMP DP  RH WIND       PRES   REMARKS
WATERTOWN      SNOW      20  17  88 W3        30.36S VSB 1/2
FORT DRUM      NOT AVBL
OGDENSBURG     LGT SNOW  15  13  93 CALM      30.35S VSB 1
MASSENA        LGT SNOW  12  10  92 CALM      30.37F FOG
SARANAC LAKE   LGT SNOW  15  13  91 CALM      30.20S FOG
PLATTSBURGH    CLOUDY    14  12  92 N6        30.35S FOG     WCI   5
$$

NYZ001>004-010>016-019>021-085-171500-
WEST


CITY           SKY/WX    TMP DP  RH WIND       PRES   REMARKS
NIAGARA FALLS  CLOUDY    18  10  71 W15       30.38S WCI   4
BUFFALO        LGT SNOW  11   8  88 SW15      30.38S VSB 3/4 WCI  -5
DUNKIRK        LGT SNOW  11   6  81 SW13      30.43S WCI  -4
JAMESTOWN      LGT SNOW   3  -1  83 S7        30.34S FOG     WCI  -9
WELLSVILLE     FAIR       8   4  83 W9        30.28R FOG     WCI  -5
ROCHESTER      LGT SNOW  12   5  73 SW10      30.39S WCI  -1
PENN YAN       FAIR      11   1  64 SW12      30.37R WCI  -3
$$

             KEY
       WCI = WIND CHILL INDEX
       VSB = VISIBILITY
       HX  = HEAT INDEX
$$



USA.gov is the U.S. government's official web portal to all federal, state and local government web resources and services.